#timestamp,LO_Frequency,Hit,StdDev 
1538704815.8,286047000.1,N
1538704835.6,286047002.3,N
1538704855.5,286047002.7,N
1538704875.3,286047002.3,N
1538704895.1,286047001.5,N
1538704915.9,286047004.4,Y
1538704935.7,286047002.0,P
1538704955.5,286046999.7,N
1538704975.4,286046999.8,N
1538704995.2,286047002.3,N
1538705015.1,286047001.7,N
1538705016.0,286047001.7,N
1538705035.8,286047004.0,Y
1538705055.6,286047002.8,P
1538705075.5,286047002.1,N
1538705095.3,286047000.0,N
1538705115.1,286047000.3,N
1538705135.9,286047002.2,N
1538705155.7,286047002.3,N
1538705175.6,286046999.9,N
1538705195.4,286047002.6,N
1538705215.2,286047002.4,N
1538705235.1,286047002.4,N
1538705236.0,286047002.4,N
1538705255.8,286047002.7,N
1538705275.6,286047002.3,N
1538705295.5,286047004.0,Y
1538705315.3,286047000.5,P
1538705335.2,286047000.1,N
1538705355.9,286046999.8,N
1538705375.7,286047000.3,N
1538705395.6,286047000.8,N
1538705415.4,286047000.3,N
1538705435.2,286047002.5,Y
1538705455.1,286047001.7,P
1538705456.0,286047001.7,N
1538705475.8,286047001.8,P
1538705495.7,286047002.2,Y
1538705515.5,286047000.4,P
1538705535.3,286047002.4,P
1538705555.2,286047004.4,P
1538705575.0,286047001.6,N
1538705575.9,286047001.6,N
1538705595.7,286047001.7,N
1538705615.6,286047003.6,Y
1538705635.4,286047002.5,P
1538705655.3,286047001.3,P
1538705675.1,286047011.9,P
1538705676.0,286047001.7,N
1538705695.8,286047001.5,N
1538705715.7,286047003.1,N
1538705735.5,286047001.7,N
1538705755.3,286047003.9,N
1538705775.2,286047005.8,N
1538705795.0,286047004.8,N
1538705795.9,286047004.8,N
1538705815.8,286047004.7,N
1538705835.6,286047004.8,N
1538705855.4,286047007.5,N
1538705875.3,286047005.1,N
1538705895.1,286047006.5,N
1538705915.8,286047006.8,N
1538705935.7,286047006.5,N
1538705955.5,286047009.1,Y
1538705975.4,286047004.2,P
1538705995.2,286047001.8,P
1538706015.0,286047003.9,P
1538706015.9,286047003.9,Y
1538706035.8,286047000.5,P
1538706055.6,286047000.7,N
1538706075.4,286046998.3,N
1538706095.3,286047000.6,N
1538706115.1,286046999.4,N
1538706135.9,286047000.3,N
1538706155.7,286047002.8,N
1538706175.5,286047002.0,N
1538706195.4,286047002.7,N
1538706215.2,286047002.8,N
1538706235.0,286047002.5,N
1538706235.9,286047002.5,N
1538706255.8,286047001.5,N
1538706275.6,286047003.1,N
1538706295.5,286047003.8,N
1538706315.3,286047002.4,N
1538706335.1,286047002.0,N
1538706355.9,286047003.3,N
1538706375.7,286047003.7,N
1538706395.5,286047003.1,N
1538706415.4,286047003.5,N
1538706435.2,286047003.2,N
1538706455.1,286047003.9,N
1538706456.0,286047003.9,N
1538706475.8,286047003.7,N
1538706495.6,286047003.0,N
1538706515.5,286047005.3,Y
1538706535.3,286047003.9,P
1538706555.1,286047004.1,P
1538706575.9,286047003.4,P
1538706595.7,286047003.0,Y
1538706615.6,286047000.1,P
1538706635.4,286047000.3,N
1538706655.2,286046999.7,N
1538706675.1,286046999.8,N
1538706676.0,286046999.8,N
1538706695.8,286047002.6,N
1538706715.6,286047001.7,N
1538706735.5,286047004.4,Y
1538706755.3,286047002.0,P
1538706775.2,286047001.9,P
1538706795.9,286047001.5,P
1538706815.7,286047002.1,Y
1538706835.6,286047000.5,P
1538706855.4,286047001.0,N
1538706875.3,286047002.4,P
1538706895.1,286047001.6,N
1538706896.0,286047001.6,N
1538706915.8,286047001.8,Y
1538706935.7,286047002.6,P
1538706955.5,286047001.7,N
1538706975.3,286046999.9,N
1538706995.2,286047002.7,N
1538707015.0,286047001.6,N
1538707015.9,286047001.6,N
1538707035.8,286047002.8,Y
1538707055.6,286046999.8,P
1538707075.4,286047002.8,N
1538707095.3,286046999.7,N
1538707115.1,286047002.7,N
1538707135.8,286047002.6,N
1538707155.7,286047001.5,N
1538707175.5,286047001.6,N
1538707195.4,286047002.5,N
1538707215.2,286047002.4,N
1538707235.0,286047001.8,N
1538707235.9,286047001.8,N
1538707255.8,286047003.9,Y
1538707275.6,286047002.4,P
1538707295.4,286047002.3,P
1538707315.3,286047001.5,P
1538707335.1,286047002.2,Y
1538707355.9,286047000.7,P
1538707375.7,286047000.8,N
1538707395.5,286047001.1,N
1538707415.4,286046998.8,N
1538707435.2,286046998.2,N
1538707455.0,286046998.2,N
1538707456.0,286046998.2,N
1538707475.8,286046998.4,N
1538707495.6,286046998.1,N
1538707515.5,286047000.8,N
1538707535.3,286047000.7,N
1538707555.1,286047000.9,N
1538707575.9,286047000.3,N
1538707595.7,286047000.6,N
1538707615.5,286046998.2,N
1538707635.4,286046998.1,N
1538707655.2,286046999.9,N
1538707675.1,286047000.3,N
1538707676.0,286047000.3,N
1538707695.8,286046998.5,N
1538707715.6,286046998.7,N
1538707735.5,286046998.2,N
1538707755.3,286046998.6,N
1538707775.2,286046998.3,N
1538707795.9,286046998.6,N
1538707815.7,286047000.3,N
1538707835.6,286047000.4,N
1538707855.4,286046999.9,N
1538707875.2,286047000.5,N
1538707895.1,286047001.1,N
1538707896.0,286047001.1,N
1538707915.8,286047000.7,N
1538707935.7,286047002.5,N
1538707955.5,286047002.7,N
1538707975.3,286047002.7,N
1538707995.2,286047001.7,N
1538708015.0,286047002.2,N
1538708015.9,286047002.2,N
1538708035.7,286047001.8,N
1538708055.6,286047001.4,N
1538708075.4,286047003.0,N
1538708095.3,286047003.9,N
1538708115.1,286047003.0,N
1538708116.0,286047003.0,N
1538708135.8,286047005.9,Y
1538708155.7,286047001.5,P
1538708175.5,286047001.3,P
1538708195.3,286047002.0,P
1538708215.2,286047005.6,Y
1538708235.0,286047003.9,P
1538708235.9,286047003.9,P
1538708255.8,286047004.2,P
1538708275.6,286047003.8,Y
1538708295.4,286046998.4,P
1538708315.3,286046998.5,N
1538708335.1,286046999.2,N
1538708355.9,286046999.2,N
1538708375.7,286046999.1,N
1538708395.5,286046999.5,N
